Location: Unspecified
(0.0000°N, 0.0000°E)
Time: 15:43:56
(UTC+00:00)

Envisat - Pass Details

Date: 09 February 2018
Orbit: 764 x 766 km, 98.2° (Epoch: 19 February)

Event Time Altitude Azimuth Distance (km) Brightness Sun altitude
Rises 21:05:11 0° 204° (SSW) 3,231 6.7 -41.1°
Reaches altitude 10° 21:08:49 10° 231° (SW) 2,301 6.0 -41.9°
Maximum altitude 21:11:01 13° 257° (WSW) 2,106 5.8 -42.5°
Enters shadow 21:12:52 11° 280° (W) 2,243 5.9 -42.9°
